"Timestamp","TZ","WindDir_Mean (deg)","WindSpd_Mean (km/h)","WindSpd_Min (km/h)","WindSpd_Max (km/h)","Temp_Mean (deg)","RH_Mean (%)","MSLP_Mean (hPa)","Rain_Acc (mm)","Rain_Intensity (mm/h)","Hail_Acc (hits/cm2)","Hail_Intensity (hits/cm2hr)","Solar_Mean (W/m2)"
2023/03/04 00:00:00.005,n,20,2.52,1.08,4.32,21.7,64.800004,1013.82,0,0,0,0,0.030479
2023/03/04 00:01:00.001,n,270,5.04,0.72,5.4,21.7,65.6,1013.82,0,0,0,0,0.030479
2023/03/04 00:02:00.001,n,152,2.88,1.8,4.32,21.7,65.199996,1013.82,0,0,0,0,0.02697
2023/03/04 00:03:00.002,n,124,3.24,2.52,3.6,21.6,63.7,1013.82,0,0,0,0,0.029564
2023/03/04 00:04:00.002,n,170,3.24,2.52,3.96,21.7,65.9,1013.82,0,0,0,0,0.027847
2023/03/04 00:05:00.006,n,229,3.6,2.52,3.96,21.6,63.8,1013.82,0,0,0,0,0.02697
2023/03/04 00:06:00.008,n,158,3.24,1.08,5.04,21.6,64.9,1013.82,0,0,0,0,0.026093
2023/03/04 00:07:00.008,n,177,5.4,2.16,7.56,21.6,63.9,1013.82,0,0,0,0,0.02697
2023/03/04 00:08:00.011,n,249,3.96,1.08,5.76,21.6,63.8,1013.82,0,0,0,0,0.021744
2023/03/04 00:09:00.008,n,252,5.4,5.4,5.76,21.6,64.300004,1013.82,0,0,0,0,0.02697
2023/03/04 00:10:00.001,n,253,3.96,2.16,5.04,21.6,64.699996,1013.82,0,0,0,0,0.026093
2023/03/04 00:11:00.001,n,211,2.88,2.16,3.6,21.6,65.1,1013.72,0,0,0,0,0.025253
2023/03/04 00:12:00.003,n,217,3.6,2.16,5.04,21.6,65.699996,1013.72,0,0,0,0,0.022621
2023/03/04 00:13:00.001,n,277,5.04,3.96,5.76,21.6,66.6,1013.72,0,0,0,0,0.023499
2023/03/04 00:14:00.001,n,277,5.04,4.32,6.84,21.6,66.300004,1013.72,0,0,0,0,0.020027
2023/03/04 00:15:00.003,n,210,3.6,2.88,3.96,21.6,64.9,1013.72,0,0,0,0,0.024338
2023/03/04 00:16:00.006,n,207,3.24,0.72,5.04,21.5,64.699996,1013.72,0,0,0,0,0.024338
2023/03/04 00:17:00.009,n,263,6.48,1.8,7.92,21.5,66.300004,1013.72,0,0,0,0,0.021744
2023/03/04 00:18:00.011,n,263,7.92,7.56,8.64,21.5,64.800004,1013.72,0,0,0,0,0.024338
2023/03/04 00:19:00.001,n,276,6.48,5.4,7.56,21.4,65.199996,1013.72,0,0,0,0,0.019112
2023/03/04 00:20:00.002,n,250,5.4,2.52,6.12,21.4,65.5,1013.62,0,0,0,0,0.024376
2023/03/04 00:21:00.001,n,268,7.2,5.76,7.92,21.4,66,1013.62,0,0,0,0,0.029602
2023/03/04 00:22:00.001,n,252,5.4,2.16,7.2,21.4,66.800004,1013.62,0,0,0,0,0.027885
2023/03/04 00:23:00.001,n,250,5.76,5.4,6.48,21.4,64.699996,1013.62,0,0,0,0,0.026131
2023/03/04 00:24:00.002,n,267,6.12,5.04,6.84,21.3,64.800004,1013.62,0,0,0,0,0.029602
2023/03/04 00:25:00.005,n,243,3.96,2.88,5.4,21.3,64,1013.62,0,0,0,0,0.030479
2023/03/04 00:26:00.008,n,262,5.76,4.32,6.48,21.3,65.1,1013.52,0,0,0,0,0.026131
2023/03/04 00:27:00.010,n,116,3.24,2.52,3.6,21.3,64.699996,1013.52,0,0,0,0,0.022659
2023/03/04 00:28:00.001,n,224,1.8,0.72,5.76,21.3,64.1,1013.52,0,0,0,0,0.026131
2023/03/04 00:29:00.001,n,196,3.96,2.16,7.56,21.3,65.199996,1013.52,0,0,0,0,0.023537
2023/03/04 00:30:00.001,n,185,6.12,3.6,10.08,21.3,64.800004,1013.52,0,0,0,0,0.023537
2023/03/04 00:31:00.002,n,197,3.6,2.88,6.84,21.3,64.1,1013.52,0,0,0,0,0.024376
2023/03/04 00:32:00.010,n,191,3.24,2.88,4.32,21.3,63.8,1013.52,0,0,0,0,0.023537
2023/03/04 00:33:00.011,n,155,2.52,1.08,4.32,21.3,63.6,1013.52,0,0,0,0,0.023537
2023/03/04 00:34:00.013,n,210,2.52,1.8,6.48,21.3,63.7,1013.52,0,0,0,0,0.022659
2023/03/04 00:35:00.014,n,183,6.12,4.32,9,21.3,63.6,1013.52,0,0,0,0,0.017433
2023/03/04 00:36:00.015,n,154,2.88,2.88,2.88,21.3,63.6,1013.52,0,0,0,0,0.020905
2023/03/04 00:37:00.001,n,178,4.32,3.6,5.04,21.3,63.7,1013.52,0,0,0,0,0.020905
2023/03/04 00:38:00.002,n,265,3.96,2.88,5.4,21.3,65,1013.52,0,0,0,0,0.020027
2023/03/04 00:39:00.004,n,174,2.88,1.08,5.76,21.3,63.9,1013.52,0,0,0,0,0.018311
2023/03/04 00:40:00.006,n,214,3.24,2.52,3.96,21.3,64,1013.52,0,0,0,0,0.027008
2023/03/04 00:41:00.001,n,184,9,5.76,10.440002,21.3,63.4,1013.52,0,0,0,0,0.031319
2023/03/04 00:42:00.001,n,205,3.6,2.88,4.68,21.3,64.1,1013.52,0,0,0,0,0.029602
2023/03/04 00:43:00.002,n,172,4.68,2.16,7.2,21.3,64.1,1013.52,0,0,0,0,0.032234
2023/03/04 00:44:00.015,n,193,3.24,2.16,4.32,21.3,64,1013.52,0,0,0,0,0.033951
2023/03/04 00:45:00.002,n,180,4.68,2.52,8.64,21.3,63.8,1013.52,0,0,0,0,0.026093
2023/03/04 00:46:00.003,n,283,2.88,2.52,3.24,21.2,64.800004,1013.52,0,0,0,0,0.025253
2023/03/04 00:47:00.001,n,153,1.08,0.36,2.16,21.2,64.5,1013.52,0,0,0,0,0.033112
2023/03/04 00:48:00.001,n,209,3.6,1.08,6.48,21.2,64.699996,1013.52,0,0,0,0,0.031319
2023/03/04 00:49:00.010,n,288,2.52,1.44,4.32,21.2,64.699996,1013.42,0,0,0,0,0.031319
2023/03/04 00:50:00.010,n,167,2.88,2.16,3.6,21.2,64.800004,1013.42,0,0,0,0,0.033112
2023/03/04 00:51:00.006,n,278,3.6,2.88,3.6,21.2,64.4,1013.42,0,0,0,0,0.03746
2023/03/04 00:52:00.012,n,222,3.24,1.8,4.68,21.2,64.199996,1013.42,0,0,0,0,0.042686
2023/03/04 00:53:00.013,n,230,3.24,0.72,5.04,21.1,64.4,1013.42,0,0,0,0,0.040054
2023/03/04 00:54:00.023,n,270,3.6,3.24,3.96,21.1,65.300004,1013.42,0,0,0,0,0.046997
2023/03/04 00:55:00.001,n,290,5.04,3.96,6.12,21.1,65,1013.42,0,0,0,0,0.024376
2023/03/04 00:56:00.005,n,283,4.68,3.96,5.4,21.1,65.4,1013.42,0,0,0,0,0.029564
2023/03/04 00:57:00.001,n,185,2.88,1.8,3.6,21.1,65.699996,1013.42,0,0,0,0,0.03479
2023/03/04 00:58:00.003,n,220,3.6,1.8,4.68,21.1,65.699996,1013.42,0,0,0,0,0.033073
2023/03/04 00:59:00.003,n,198,3.24,1.08,4.68,21,65.9,1013.42,0,0,0,0,0.033951
2023/03/04 01:00:00.002,n,260,4.32,3.96,4.68,21,66,1013.42,0,0,0,0,0.0383
2023/03/04 01:01:00.011,n,263,5.4,5.04,5.76,21,66,1013.32,0,0,0,0,0.039177
2023/03/04 01:02:00.010,n,248,4.68,2.52,5.76,21,67.3,1013.32,0,0,0,0,0.039177
2023/03/04 01:03:00.017,n,241,3.6,1.8,5.4,21,66.300004,1013.32,0,0,0,0,0.039177
2023/03/04 01:04:00.007,n,209,3.6,2.52,5.04,21,65.699996,1013.32,0,0,0,0,0.039177
2023/03/04 01:05:00.002,n,215,2.88,2.52,3.24,20.9,67.2,1013.32,0,0,0,0,0.046959
2023/03/04 01:06:00.002,n,242,2.88,1.8,4.68,20.9,68.1,1013.32,0,0,0,0,0.045242
2023/03/04 01:07:00.004,n,171,4.32,2.16,7.2,20.9,66.199996,1013.32,0,0,0,0,0.047874
2023/03/04 01:08:00.011,n,154,3.96,1.8,5.76,20.9,66.300004,1013.32,0,0,0,0,0.042648
2023/03/04 01:09:00.003,n,281,2.52,1.44,4.32,20.9,66.4,1013.32,0,0,0,0,0.044365
2023/03/04 01:10:00.019,n,265,1.44,1.08,2.16,20.9,67.2,1013.32,0,0,0,0,0.049591
2023/03/04 01:11:00.008,n,206,4.32,3.24,7.56,20.8,65.9,1013.32,0,0,0,0,0.045242
2023/03/04 01:12:00.004,n,286,4.32,3.24,5.76,20.8,66.1,1013.32,0,0,0,0,0.024376
2023/03/04 01:13:00.001,n,216,3.24,1.8,5.4,20.9,66.9,1013.32,0,0,0,0,0.030441
2023/03/04 01:14:00.003,n,239,4.32,1.8,5.4,20.9,67.1,1013.22,0,0,0,0,0.033073
2023/03/04 01:15:00.002,n,189,4.68,1.8,7.92,20.9,68.2,1013.22,0,0,0,0,0.032196
2023/03/04 01:16:00.001,n,161,3.6,1.8,5.4,20.9,66.9,1013.22,0,0,0,0,0.033951
2023/03/04 01:17:00.011,n,273,5.04,4.32,5.76,20.8,66.6,1013.22,0,0,0,0,0.036545
2023/03/04 01:18:00.011,n,273,7.56,7.2,7.92,20.9,68,1013.22,0,0,0,0,0.035667
2023/03/04 01:19:00.003,n,239,5.4,3.6,5.76,20.8,66,1013.22,0,0,0,0,0.035667
2023/03/04 01:20:00.007,n,185,3.6,2.52,4.32,20.8,67.2,1013.22,0,0,0,0,0.036545
2023/03/04 01:21:00.005,n,181,3.6,2.88,4.32,20.8,66.5,1013.22,0,0,0,0,0.035667
2023/03/04 01:22:00.002,n,256,3.96,1.08,5.76,20.8,66,1013.22,0,0,0,0,0.035667
2023/03/04 01:23:00.001,n,256,5.04,5.04,5.4,20.8,65.9,1013.22,0,0,0,0,0.036545
2023/03/04 01:24:00.001,n,265,6.84,4.68,7.56,20.8,66.699996,1013.22,0,0,0,0,0.040894
2023/03/04 01:25:00.002,n,269,6.12,5.4,7.92,20.8,66.800004,1013.22,0,0,0,0,0.036545
2023/03/04 01:26:00.007,n,267,6.84,5.04,7.56,20.8,66,1013.22,0,0,0,0,0.036545
2023/03/04 01:27:00.006,n,224,3.6,2.16,5.4,20.8,66.9,1013.22,0,0,0,0,0.036545
2023/03/04 01:28:00.002,n,271,5.04,4.68,5.4,20.8,66.300004,1013.12,0,0,0,0,0.037384
2023/03/04 01:29:00.006,n,260,4.32,1.08,5.04,20.8,65,1013.22,0,0,0,0,0.036545
2023/03/04 01:30:00.013,n,266,6.48,5.76,7.56,20.8,65.5,1013.22,0,0,0,0,0.040016
2023/03/04 01:31:00.001,n,269,7.2,6.84,7.56,20.8,64.9,1013.12,0,0,0,0,0.040016
2023/03/04 01:32:00.001,n,267,7.56,6.48,8.28,20.8,64.5,1013.22,0,0,0,0,0.040894
2023/03/04 01:33:00.001,n,231,3.24,2.52,4.68,20.8,65.699996,1013.22,0,0,0,0,0.041771
2023/03/04 01:34:00.001,n,179,3.24,1.44,6.48,20.9,65.699996,1013.22,0,0,0,0,0.041771
2023/03/04 01:35:00.002,n,295,5.76,3.96,7.2,20.9,67.5,1013.22,0,0,0,0,0.0383
2023/03/04 01:36:00.014,n,253,7.56,3.24,8.64,20.9,64.5,1013.22,0,0,0,0,0.043488
2023/03/04 01:37:00.008,n,228,5.04,3.6,5.76,20.9,64.4,1013.12,0,0,0,0,0.041771
2023/03/04 01:38:00.008,n,275,5.76,5.4,8.28,20.9,64.800004,1013.12,0,0,0,0,0.037384
2023/03/04 01:39:00.005,n,244,4.32,3.96,4.68,20.9,66,1013.12,0,0,0,0,0.04261
2023/03/04 01:40:00.011,n,223,3.24,2.16,5.04,20.9,64.4,1013.12,0,0,0,0,0.043488
2023/03/04 01:41:00.001,n,273,8.64,6.84,9.72,20.9,64.699996,1013.12,0,0,0,0,0.040016
2023/03/04 01:42:00.002,n,236,5.76,5.04,7.92,20.9,64.4,1013.12,0,0,0,0,0.041771
2023/03/04 01:43:00.010,n,275,5.4,5.04,6.12,20.9,66,1013.12,0,0,0,0,0.039177
2023/03/04 01:44:00.005,n,147,4.32,2.52,5.76,20.9,65.300004,1013.12,0,0,0,0,0.044365
2023/03/04 01:45:00.007,n,108,1.08,0.72,1.08,20.9,65,1013.12,0,0,0,0,0.040894
2023/03/04 01:46:00.012,n,241,2.16,0.36,3.96,20.9,65.199996,1013.12,0,0,0,0,0.041771
2023/03/04 01:47:00.017,n,285,2.52,1.8,3.24,20.9,66.199996,1013.12,0,0,0,0,0.040894
2023/03/04 01:48:00.010,n,176,4.32,2.88,7.56,20.9,65.199996,1013.02,0,0,0,0,0.041771
2023/03/04 01:49:00.001,n,207,3.6,2.16,4.68,20.8,65.699996,1013.02,0,0,0,0,0.041771
2023/03/04 01:50:00.001,n,160,0.72,0.36,1.44,20.8,65.5,1013.02,0,0,0,0,0.044365
2023/03/04 01:51:00.009,n,193,2.52,2.16,2.88,20.9,66.5,1013.02,0,0,0,0,0.045242
2023/03/04 01:52:00.008,n,200,6.12,5.4,6.84,20.9,65.9,1013.02,0,0,0,0,0.045242
2023/03/04 01:53:00.002,n,235,4.68,1.8,6.48,20.8,66.300004,1013.02,0,0,0,0,0.043488
2023/03/04 01:54:00.002,n,281,5.76,4.32,7.56,20.9,67,1013.02,0,0,0,0,0.041771
2023/03/04 01:55:00.014,n,190,3.96,2.88,6.84,20.8,66.699996,1013.02,0,0,0,0,0.043488
2023/03/04 01:56:00.008,n,167,5.04,1.44,5.76,20.8,66.4,1013.02,0,0,0,0,0.045242
2023/03/04 01:57:00.019,n,324,0.72,0.36,0.72,20.8,66.9,1013.02,0,0,0,0,0.047836
2023/03/04 01:58:00.001,n,275,3.96,3.24,4.32,20.8,66.6,1013.02,0,0,0,0,0.041771
2023/03/04 01:59:00.001,n,107,2.52,0.72,4.68,20.8,69,1013.02,0,0,0,0,0.041771
2023/03/04 02:00:00.001,n,269,5.76,5.4,6.12,20.8,67,1013.02,0,0,0,0,0.047836
2023/03/04 02:01:00.001,n,321,3.96,1.8,5.76,20.7,68.3,1013.02,0,0,0,0,0.04612
2023/03/04 02:02:00.001,n,268,6.84,6.12,7.56,20.7,67.7,1013.02,0,0,0,0,0.045242
2023/03/04 02:03:00.010,n,255,5.4,4.68,6.12,20.7,67.6,1013.02,0,0,0,0,0.048714
2023/03/04 02:04:00.007,n,248,7.2,6.48,7.56,20.7,67.2,1013.02,0,0,0,0,0.043488
2023/03/04 02:05:00.013,n,265,8.28,7.56,8.64,20.7,66.9,1013.02,0,0,0,0,0.04612
2023/03/04 02:06:00.012,n,262,5.04,4.32,6.48,20.6,67.3,1013.02,0,0,0,0,0.043488
2023/03/04 02:07:00.001,n,243,5.4,2.16,6.84,20.6,67.5,1013.02,0,0,0,0,0.046959
2023/03/04 02:08:00.002,n,263,5.04,1.8,5.4,20.6,67.8,1013.02,0,0,0,0,0.046959
2023/03/04 02:09:00.008,n,234,3.6,0.72,5.4,20.6,68.4,1013.02,0,0,0,0,0.047836
2023/03/04 02:10:00.007,n,265,3.96,2.52,5.76,20.6,68.4,1013.02,0,0,0,0,0.047836
2023/03/04 02:11:00.002,n,266,4.32,3.96,4.68,20.6,67.4,1013.02,0,0,0,0,0.044365
2023/03/04 02:12:00.006,n,274,5.04,0.72,6.48,20.6,69.7,1013.02,0,0,0,0,0.046959
2023/03/04 02:13:00.010,n,157,2.52,1.8,3.24,20.6,68.1,1013.02,0,0,0,0,0.045242
2023/03/04 02:14:00.016,n,282,4.32,3.24,5.04,20.5,68.9,1012.92,0,0,0,0,0.04612
2023/03/04 02:15:00.009,n,269,5.04,5.04,6.12,20.5,67.8,1012.92,0,0,0,0,0.043488
2023/03/04 02:16:00.001,n,256,7.92,7.56,9.36,20.5,67.8,1012.92,0,0,0,0,0.04612
2023/03/04 02:17:00.001,n,287,2.88,0.36,4.68,20.5,68.4,1012.92,0,0,0,0,0.045242
2023/03/04 02:18:00.001,n,274,4.32,0.72,6.12,20.5,68.3,1012.92,0,0,0,0,0.04612
2023/03/04 02:19:00.001,n,227,4.68,4.32,5.76,20.5,68.9,1012.92,0,0,0,0,0.04612
2023/03/04 02:20:00.020,n,271,2.88,0.72,3.96,20.5,70.1,1012.92,0,0,0,0,0.044365
2023/03/04 02:21:00.001,n,342,3.6,0.36,9,20.4,69.1,1012.92,0,0,0,0,0.044365
2023/03/04 02:22:00.009,n,290,2.88,1.8,3.6,20.4,69.7,1012.92,0,0,0,0,0.047836
2023/03/04 02:23:00.005,n,145,1.44,0.36,5.04,20.4,70.7,1012.92,0,0,0,0,0.044365
2023/03/04 02:24:00.016,n,257,4.32,1.8,6.48,20.5,70.2,1012.92,0,0,0,0,0.04261
2023/03/04 02:25:00.001,n,207,3.96,3.6,4.68,20.4,69.5,1012.92,0,0,0,0,0.04612
2023/03/04 02:26:00.001,n,239,6.84,5.4,8.64,20.4,69.2,1012.92,0,0,0,0,0.048714
2023/03/04 02:27:00.002,n,250,7.92,6.48,9,20.4,68.8,1012.92,0,0,0,0,0.04612
2023/03/04 02:28:00.007,n,274,5.04,3.6,6.84,20.3,69.5,1012.92,0,0,0,0,0.049591
2023/03/04 02:29:00.004,n,255,5.04,4.32,6.12,20.3,68.8,1012.92,0,0,0,0,0.046959
2023/03/04 02:30:00.001,n,200,3.24,1.8,3.96,20.3,69.1,1012.82,0,0,0,0,0.046959
2023/03/04 02:31:00.001,n,254,3.96,1.08,4.68,20.3,69.6,1012.82,0,0,0,0,0.048714
2023/03/04 02:32:00.014,n,261,3.24,1.8,3.96,20.3,68.7,1012.82,0,0,0,0,0.045242
2023/03/04 02:33:00.016,n,228,3.96,2.52,5.76,20.2,68.5,1012.92,0,0,0,0,0.045242
2023/03/04 02:34:00.002,n,195,3.6,2.88,6.48,20.2,69.7,1012.92,0,0,0,0,0.04261
2023/03/04 02:35:00.001,n,195,2.52,1.8,5.04,20.2,70.5,1012.92,0,0,0,0,0.045242
2023/03/04 02:36:00.005,n,215,2.88,2.52,4.32,20.3,69.4,1012.92,0,0,0,0,0.04612
2023/03/04 02:37:00.009,n,232,3.24,2.16,3.96,20.2,69.5,1012.92,0,0,0,0,0.044365
2023/03/04 02:38:00.001,n,288,2.88,2.16,3.96,20.2,70,1012.92,0,0,0,0,0.043488
2023/03/04 02:39:00.001,n,191,3.96,3.24,5.4,20.2,69.3,1012.92,0,0,0,0,0.043488
2023/03/04 02:40:00.010,n,231,3.96,2.88,5.4,20.2,70.1,1012.92,0,0,0,0,0.041771
2023/03/04 02:41:00.004,n,244,3.96,1.44,6.12,20.2,69.8,1012.92,0,0,0,0,0.04261
2023/03/04 02:42:00.002,n,253,3.6,1.8,5.04,20.2,70.1,1012.92,0,0,0,0,0.044365
2023/03/04 02:43:00.001,n,209,3.24,2.52,3.6,20.2,69.2,1012.92,0,0,0,0,0.040894
2023/03/04 02:44:00.001,n,210,3.24,2.52,5.04,20.2,70.2,1012.82,0,0,0,0,0.040894
2023/03/04 02:45:00.001,n,223,2.52,2.16,4.68,20.2,69.3,1012.82,0,0,0,0,0.040016
2023/03/04 02:46:00.009,n,198,2.88,0.36,3.24,20.1,69.5,1012.82,0,0,0,0,0.043488
2023/03/04 02:47:00.008,n,227,3.24,1.08,4.32,20.1,70.4,1012.72,0,0,0,0,0.039177
2023/03/04 02:48:00.002,n,219,3.6,2.52,5.04,20.1,69.5,1012.72,0,0,0,0,0.041771
2023/03/04 02:49:00.015,n,223,2.16,1.8,3.96,20.1,69.4,1012.72,0,0,0,0,0.047836
2023/03/04 02:50:00.007,n,248,2.52,1.44,3.24,20.1,70,1012.72,0,0,0,0,0.041771
2023/03/04 02:51:00.017,n,212,2.52,1.44,2.88,20.1,69.7,1012.72,0,0,0,0,0.040894
2023/03/04 02:52:00.001,n,174,2.88,0.36,5.04,20.2,70.6,1012.72,0,0,0,0,0.044365
2023/03/04 02:53:00.001,n,348,1.08,0.36,1.44,20.2,69.9,1012.72,0,0,0,0,0.04261
2023/03/04 02:54:00.001,n,167,3.6,1.8,8.28,20.2,69.4,1012.72,0,0,0,0,0.036545
2023/03/04 02:55:00.002,n,204,6.48,5.76,8.28,20.2,69.6,1012.72,0,0,0,0,0.037384
2023/03/04 02:56:00.001,n,125,2.88,2.16,5.76,20.2,69.6,1012.72,0,0,0,0,0.037384
2023/03/04 02:57:00.002,n,189,3.6,2.52,4.32,20.2,69.4,1012.72,0,0,0,0,0.037384
2023/03/04 02:58:00.009,n,170,5.4,2.88,7.56,20.2,69.6,1012.72,0,0,0,0,0.040894
2023/03/04 02:59:00.002,n,0,3.24,0.72,6.48,20.2,69.8,1012.72,0,0,0,0,0.0383
2023/03/04 03:00:00.017,n,261,2.88,1.44,5.04,20.2,69.6,1012.72,0,0,0,0,0.037384
2023/03/04 03:01:00.001,n,194,3.6,2.16,6.12,20.2,69.4,1012.72,0,0,0,0,0.03479
2023/03/04 03:02:00.002,n,197,1.8,0.72,5.04,20.2,69.6,1012.72,0,0,0,0,0.03479
2023/03/04 03:03:00.003,n,208,2.88,1.08,5.04,20.2,69.6,1012.72,0,0,0,0,0.037384
2023/03/04 03:04:00.001,n,168,5.4,3.96,7.92,20.2,69.5,1012.72,0,0,0,0,0.037384
2023/03/04 03:05:00.001,n,131,2.16,0.72,2.88,20.2,69.6,1012.72,0,0,0,0,0.037384
2023/03/04 03:06:00.001,n,172,2.52,1.8,3.24,20.2,69.5,1012.72,0,0,0,0,0.0383
2023/03/04 03:07:00.015,n,169,3.6,2.16,6.84,20.1,69.4,1012.72,0,0,0,0,0.03479
2023/03/04 03:08:00.005,n,179,4.32,1.44,6.84,20.1,69.5,1012.72,0,0,0,0,0.035667
2023/03/04 03:09:00.009,n,109,2.52,2.16,3.24,20.1,69.5,1012.72,0,0,0,0,0.035667
2023/03/04 03:10:00.002,n,200,4.32,2.88,5.04,20.1,69.5,1012.72,0,0,0,0,0.03479
2023/03/04 03:11:00.001,n,185,3.6,1.44,6.48,20.1,70.1,1012.72,0,0,0,0,0.0383
2023/03/04 03:12:00.002,n,161,5.76,3.6,9,20.1,69.7,1012.72,0,0,0,0,0.037384
2023/03/04 03:13:00.002,n,285,3.24,2.16,4.68,20.1,70.4,1012.72,0,0,0,0,0.0383
2023/03/04 03:14:00.001,n,195,2.88,2.52,3.24,20.1,70.3,1012.72,0,0,0,0,0.035667
2023/03/04 03:15:00.007,n,272,1.44,0.72,2.16,20.1,70.5,1012.72,0,0,0,0,0.03479
2023/03/04 03:16:00.013,n,131,2.16,1.08,3.24,20.1,70.1,1012.72,0,0,0,0,0.035667
2023/03/04 03:17:00.006,n,304,2.16,0,4.68,20.1,70.1,1012.72,0,0,0,0,0.031319
2023/03/04 03:18:00.015,n,187,5.04,3.6,9,20.1,69.8,1012.72,0,0,0,0,0.0383
2023/03/04 03:19:00.002,n,194,5.4,3.96,8.64,20.1,69.8,1012.62,0,0,0,0,0.035667
2023/03/04 03:20:00.002,n,139,3.6,2.88,3.96,20.1,69.9,1012.72,0,0,0,0,0.033073
2023/03/04 03:21:00.001,n,172,4.68,2.16,9.36,20.1,70.1,1012.62,0,0,0,0,0.037384
2023/03/04 03:22:00.005,n,194,6.84,3.96,8.64,20.1,70.1,1012.62,0,0,0,0,0.03479
2023/03/04 03:23:00.001,n,193,7.2,5.4,9.72,20,70.1,1012.72,0,0,0,0,0.035667
2023/03/04 03:24:00.012,n,212,5.76,5.04,6.12,20,70.2,1012.72,0,0,0,0,0.033951
2023/03/04 03:25:00.012,n,154,6.12,5.4,7.2,20,70.5,1012.72,0,0,0,0,0.033073
2023/03/04 03:26:00.012,n,155,5.04,4.32,10.08,20,70.7,1012.62,0,0,0,0,0.033951
2023/03/04 03:27:00.015,n,175,6.84,2.88,8.28,20,70.8,1012.62,0,0,0,0,0.033951
2023/03/04 03:28:00.001,n,156,3.24,1.08,4.68,20,70.9,1012.72,0,0,0,0,0.036545
2023/03/04 03:29:00.001,n,163,4.68,4.32,5.4,20,70.8,1012.72,0,0,0,0,0.036545
2023/03/04 03:30:00.001,n,171,7.92,3.6,11.88,20,70.6,1012.72,0,0,0,0,0.035667
2023/03/04 03:31:00.008,n,176,8.64,5.04,12.24,19.9,70.7,1012.72,0,0,0,0,0.035667
2023/03/04 03:32:00.014,n,159,4.32,2.52,10.08,19.9,70.5,1012.72,0,0,0,0,0.032196
2023/03/04 03:33:00.011,n,172,10.440002,6.84,14.4,19.9,70.2,1012.72,0,0,0,0,0.032196
2023/03/04 03:34:00.012,n,117,1.44,1.44,2.52,19.9,70,1012.72,0,0,0,0,0.032196
2023/03/04 03:35:00.017,n,141,7.2,6.12,9,19.9,69.9,1012.72,0,0,0,0,0.033951
2023/03/04 03:36:00.001,n,212,5.4,3.6,7.56,20,70,1012.72,0,0,0,0,0.03479
2023/03/04 03:37:00.001,n,144,7.2,5.4,11.52,20,69.8,1012.72,0,0,0,0,0.033951
2023/03/04 03:38:00.006,n,160,3.96,2.88,10.08,20,69.9,1012.72,0,0,0,0,0.029564
2023/03/04 03:39:00.002,n,174,10.08,6.12,17.64,20,69.7,1012.72,0,0,0,0,0.033951
2023/03/04 03:40:00.005,n,151,5.4,1.08,10.8,20,69.9,1012.72,0,0,0,0,0.029564
2023/03/04 03:41:00.001,n,166,12.6,9.72,16.2,20,69.9,1012.72,0,0,0,0,0.029564
2023/03/04 03:42:00.001,n,188,4.68,2.52,8.28,20,69.9,1012.72,0,0,0,0,0.033951
2023/03/04 03:43:00.007,n,181,7.56,4.32,10.8,19.9,69.9,1012.72,0,0,0,0,0.028725
2023/03/04 03:44:00.015,n,176,8.64,5.4,10.440002,19.9,69.9,1012.72,0,0,0,0,0.031319
2023/03/04 03:45:00.010,n,187,6.84,3.96,8.28,19.9,69.9,1012.72,0,0,0,0,0.029564
2023/03/04 03:46:00.001,n,240,5.04,1.8,6.48,19.9,70.1,1012.72,0,0,0,0,0.030441
2023/03/04 03:47:00.009,n,185,5.76,3.96,8.64,20,69.8,1012.72,0,0,0,0,0.02697
2023/03/04 03:48:00.012,n,99,2.52,2.16,2.52,20,69.9,1012.72,0,0,0,0,0.024376
2023/03/04 03:49:00.010,n,339,1.08,0.36,6.12,20,69.9,1012.72,0,0,0,0,0.030441
2023/03/04 03:50:00.006,n,200,2.88,2.88,3.24,19.9,69.9,1012.72,0,0,0,0,0.029564
2023/03/04 03:51:00.005,n,173,8.64,4.68,11.16,20,70.1,1012.72,0,0,0,0,0.028725
2023/03/04 03:52:00.023,n,146,1.8,1.44,2.16,19.9,70,1012.72,0,0,0,0,0.027847
2023/03/04 03:53:00.003,n,225,3.24,1.08,4.32,19.9,70.5,1012.72,0,0,0,0,0.029564
2023/03/04 03:54:00.002,n,155,3.24,0.72,5.76,19.9,70.7,1012.82,0,0,0,0,0.027847
2023/03/04 03:55:00.003,n,175,4.68,3.6,7.56,19.9,70.1,1012.72,0,0,0,0,0.02697
2023/03/04 03:56:00.002,n,234,2.88,0.72,6.12,19.9,70.1,1012.82,0,0,0,0,0.02697
2023/03/04 03:57:00.001,n,153,1.08,0.36,5.04,19.9,70.1,1012.82,0,0,0,0,0.029564
2023/03/04 03:58:00.001,n,168,8.28,6.12,12.6,19.9,70.2,1012.82,0,0,0,0,0.025215
2023/03/04 03:59:00.002,n,159,7.2,6.12,8.28,19.9,70,1012.82,0,0,0,0,0.027847
2023/03/04 04:00:00.014,n,240,3.96,3.96,4.68,19.9,70.2,1012.82,0,0,0,0,0.025215
2023/03/04 04:01:00.001,n,162,5.76,4.32,10.8,19.9,70.2,1012.82,0,0,0,0,0.028725
2023/03/04 04:02:00.015,n,226,2.52,2.16,3.24,19.9,70.2,1012.82,0,0,0,0,0.02697
2023/03/04 04:03:00.007,n,180,5.04,2.88,6.48,19.9,70.4,1012.82,0,0,0,0,0.023499
2023/03/04 04:04:00.001,n,205,2.52,2.16,5.4,19.9,70.7,1012.82,0,0,0,0,0.024376
2023/03/04 04:05:00.004,n,221,4.32,2.52,9.72,19.8,70.4,1012.72,0,0,0,0,0.02697
2023/03/04 04:06:00.001,n,182,14.04,11.52,17.28,19.8,70.4,1012.72,0,0,0,0,0.023499
2023/03/04 04:07:00.001,n,179,2.88,1.8,3.6,19.8,70.3,1012.72,0,0,0,0,0.027847
2023/03/04 04:08:00.002,n,189,3.24,1.08,14.4,19.8,70.2,1012.72,0,0,0,0,0.024376
2023/03/04 04:09:00.019,n,305,1.8,1.44,2.16,19.8,70.3,1012.72,0,0,0,0,0.02697
2023/03/04 04:10:00.002,n,211,6.12,5.76,7.2,19.8,70.3,1012.72,0,0,0,0,0.023499
2023/03/04 04:11:00.002,n,210,2.16,1.08,5.04,19.8,70.4,1012.72,0,0,0,0,0.024376
2023/03/04 04:12:00.011,n,111,3.6,3.24,4.32,19.8,70.4,1012.82,0,0,0,0,0.022621
2023/03/04 04:13:00.001,n,205,9.72,8.64,10.8,19.8,70.4,1012.82,0,0,0,0,0.02697
2023/03/04 04:14:00.001,n,137,3.6,3.24,3.96,19.8,70.4,1012.82,0,0,0,0,0.024376
2023/03/04 04:15:00.001,n,139,2.88,1.44,3.96,19.8,70.6,1012.82,0,0,0,0,0.026093
2023/03/04 04:16:00.006,n,214,5.04,4.68,7.2,19.8,70.6,1012.82,0,0,0,0,0.025215
2023/03/04 04:17:00.016,n,139,4.68,2.52,5.76,19.8,70.7,1012.82,0,0,0,0,0.022621
2023/03/04 04:18:00.005,n,136,7.2,6.48,8.28,19.8,70.7,1012.82,0,0,0,0,0.024338
2023/03/04 04:19:00.002,n,178,7.56,4.32,10.8,19.7,70.9,1012.82,0,0,0,0,0.02697
2023/03/04 04:20:00.009,n,173,10.8,7.2,15.12,19.7,70.7,1012.72,0,0,0,0,0.024338
2023/03/04 04:21:00.008,n,183,11.88,9.72,14.4,19.7,70.6,1012.72,0,0,0,0,0.027847
2023/03/04 04:22:00.007,n,212,5.76,4.32,7.2,19.7,70.5,1012.72,0,0,0,0,0.028725
2023/03/04 04:23:00.001,n,188,9.36,7.92,12.96,19.7,70.2,1012.72,0,0,0,0,0.031319
2023/03/04 04:24:00.002,n,180,11.16,7.56,14.04,19.7,70.3,1012.72,0,0,0,0,0.028725
2023/03/04 04:25:00.001,n,160,6.12,3.6,9.36,19.7,70.3,1012.72,0,0,0,0,0.030441
2023/03/04 04:26:00.001,n,169,10.440002,7.92,14.76,19.7,70.3,1012.72,0,0,0,0,0.02697
2023/03/04 04:27:00.009,n,159,9.36,7.2,11.88,19.7,70.5,1012.72,0,0,0,0,0.02697
2023/03/04 04:28:00.011,n,183,12.6,11.52,16.2,19.7,70.5,1012.72,0,0,0,0,0.023499
2023/03/04 04:29:00.012,n,158,3.24,1.44,5.04,19.7,70.5,1012.72,0,0,0,0,0.021744
2023/03/04 04:30:00.014,n,182,9.72,6.48,12.24,19.7,70.5,1012.72,0,0,0,0,0.014763
2023/03/04 04:31:00.001,n,187,10.440002,9.36,12.6,19.7,70.5,1012.72,0,0,0,0,0.026093
2023/03/04 04:32:00.002,n,234,5.04,3.96,6.48,19.7,70.6,1012.72,0,0,0,0,0.030441
2023/03/04 04:33:00.004,n,186,9.72,7.2,14.4,19.7,70.5,1012.72,0,0,0,0,0.02346
2023/03/04 04:34:00.007,n,142,5.76,4.68,7.2,19.7,70.4,1012.72,0,0,0,0,0.019112
2023/03/04 04:35:00.011,n,216,6.84,5.76,11.16,19.7,70.4,1012.72,0,0,0,0,0.018234
2023/03/04 04:36:00.001,n,210,12.6,10.08,14.76,19.7,70.4,1012.72,0,0,0,0,0.026093
2023/03/04 04:37:00.001,n,233,7.92,4.68,11.52,19.7,70.3,1012.72,0,0,0,0,0.027847
2023/03/04 04:38:00.007,n,192,6.12,3.96,7.56,19.7,70.3,1012.72,0,0,0,0,0.025215
2023/03/04 04:39:00.010,n,173,12.96,10.440002,15.84,19.8,70.2,1012.72,0,0,0,0,0.020866
2023/03/04 04:40:00.002,n,160,3.6,1.08,6.84,19.8,70.2,1012.72,0,0,0,0,0.018272
2023/03/04 04:41:00.004,n,197,14.04,11.52,16.919998,19.8,70.2,1012.72,0,0,0,0,0.018272
2023/03/04 04:42:00.001,n,135,4.68,1.08,6.12,19.8,70.2,1012.72,0,0,0,0,0.026093
2023/03/04 04:43:00.001,n,174,14.76,11.52,20.519998,19.8,70.2,1012.72,0,0,0,0,0.030479
2023/03/04 04:44:00.001,n,210,7.2,6.84,9,19.8,70.3,1012.72,0,0,0,0,0.026093
2023/03/04 04:45:00.003,n,314,2.88,0.72,4.68,19.8,70.3,1012.82,0,0,0,0,0.022621
2023/03/04 04:46:00.005,n,201,7.2,5.76,9.36,19.8,70.2,1012.82,0,0,0,0,0.023499
2023/03/04 04:47:00.007,n,159,3.6,1.44,6.84,19.8,70.3,1012.82,0,0,0,0,0.020905
2023/03/04 04:48:00.009,n,178,7.2,3.96,10.8,19.8,70.3,1012.82,0,0,0,0,0.022621
2023/03/04 04:49:00.002,n,186,5.04,3.6,7.92,19.8,70.3,1012.82,0,0,0,0,0.02697
2023/03/04 04:50:00.001,n,210,1.8,0.72,3.6,19.8,70.2,1012.82,0,0,0,0,0.026093
2023/03/04 04:51:00.003,n,160,5.4,3.24,9,19.8,70.3,1012.82,0,0,0,0,0.024338
2023/03/04 04:52:00.005,n,246,5.76,2.88,7.56,19.8,70.2,1012.82,0,0,0,0,0.02346